Regional Weather Roundup
Issued by NWS

Home | Current Version | Previous Version | Graphics & Text | Print | Product List | Glossary On
Versions: 1 2 3 4 5 6 7 8 9 10 11 12 13 14 15 16 17 18 19 20 21 22 23 24 25 26 27 28 29 30 31 32 33 34 35 36 37 38 39 40 41 42 43 44 45 46 47 48 49 50
000
ASUS45 KBOU 040307
RWRCO

WEATHER ROUNDUP FOR COLORADO
NATIONAL WEATHER SERVICE DENVER/BOULDER CO
900 PM MDT THU SEP 03 2015

NOTE: "FAIR" INDICATES FEW OR NO CLOUDS BELOW 12000 FEET WITH NO
SIGNIFICANT WEATHER AND/OR OBSTRUCTIONS TO VISIBILITY.

COZ001>005-013-030-031-040400-
...NORTHWEST COLORADO...

CITY           SKY/WX    TMP DP  RH WIND       PRES   REMARKS
CRAIG          CLEAR     62  47  57 S3        30.06R
HAYDEN         CLEAR     59  45  58 E10       30.09R
MEEKER         CLEAR     62  47  57 VRB3      30.06R
MOUNT WERNER   NOT AVBL
STEAMBOAT SPGS CLEAR     54  47  75 CALM      30.13R
WALDEN         PTCLDY    48  46  93 SE5       30.21S
$$

COZ006>008-011-040400-
...WEST CENTRAL VALLEYS...

CITY           SKY/WX    TMP DP  RH WIND       PRES   REMARKS
GRAND JUNCTION MOCLDY    73  49  42 E9        29.94R
MONTROSE       CLEAR     65  55  70 SE5       30.06R
EAGLE          CLEAR     61  52  72 CALM      30.17R
RIFLE          CLEAR     64  54  69 SE9       30.03R
DELTA          CLEAR     71  50  47 NE6       30.00R
NUCLA          CLEAR     72  34  25 SE5       30.07R
$$

COZ017>023-064>068-040400-
...SOUTHWEST COLORADO...

CITY           SKY/WX    TMP DP  RH WIND       PRES   REMARKS
DURANGO        MOCLDY    69  34  27 SW5       30.11R
CORTEZ         CLEAR     64  45  49 E3        30.05R
PAGOSA SPRINGS MOCLDY    60  44  56 CALM      30.21R
TELLURIDE      PTCLDY    57  44  62 CALM      30.31R
WOLF CREEK PAS NOT AVBL
$$

COZ009-010-012-014-032>034-037-058>063-040400-
...CENTRAL COLORADO...

CITY           SKY/WX    TMP DP  RH WIND       PRES   REMARKS
ASPEN          CLEAR     52  47  83 SW9       30.21R
BUENA VISTA    NOT AVBL
COPPER MTN     CLEAR     46  34  61 S7        30.49R
BERTHOUD PASS  FAIR      37  27  65 W17G23    30.52R
COTTONWOOD PAS CLEAR     55  41  58 W5        30.35R
GUNNISON       PTCLDY    55  48  76 N6        30.23R
KREMMLING      CLEAR     52  46  82 CALM      30.22R
LEADVILLE      CLEAR     44  42  93 NE3       30.34R
MONARCH PASS   PTCLDY    43  39  87 SW17      30.59R
SALIDA         CLEAR     63  45  53 W9        30.25S
SUNLIGHT       CLEAR     46  45  93 CALM      30.42R
WILKERSON PASS CLEAR     46  41  81 W3        30.46R
$$

COZ069>075-040400-
...SAN LUIS VALLEY/SANGRE DE CRISTO MOUNTAINS...

CITY           SKY/WX    TMP DP  RH WIND       PRES   REMARKS
ALAMOSA        PTCLDY    56  47  71 W7        30.20R
LA VETA PASS   MOCLDY    54  39  58 S7        30.37R
SAGUACHE       PTCLDY    54  46  76 NE5       30.23R
$$

COZ035-036-038>040-040400-
...NORTHERN COLORADO FRONT RANGE...

CITY           SKY/WX    TMP DP  RH WIND       PRES   REMARKS
DENVER INTL AP PTCLDY    60  57  89 S10       30.02R
DMNS CITY PARK   N/A     63  59  89 SE8       30.03R
AURORA         PTCLDY    60  58  94 S8        30.05R
FRONT RANGE AP PTCLDY    61  57  88 S7        30.04R
ERIE MUNI ARPT CLEAR     61  57  88 CALM      30.00S
BOULDER MUN AP CLEAR     63  55  77 W5        30.01S
CENTENNIAL     PTCLDY    60  55  83 S7        30.05S
BROOMFIELD     PTCLDY    63  54  72 W5        30.05R
FORT COLLINS   CLEAR     66  48  52 CALM      30.00S
LONGMONT       CLEAR     62  54  75 CALM      30.01S HAZE
$$

COZ041-046-047-076>085-087-088-040400-
...PIKES PEAK/PALMER DIVIDE AND SOUTHERN FOOTHILLS...

CITY           SKY/WX    TMP DP  RH WIND       PRES   REMARKS
COLO. SPRINGS  MOCLDY    66  51  58 NW10      30.07R
A. F. ACADEMY  MOCLDY    60  54  80 N8        30.10R
ELLICOTT       PTCLDY   N/A N/A N/A N8        30.04R
FALCON         MOCLDY    62  49  64 MISG      30.12R
FORT CARSON    MOCLDY    65  53  65 N12       30.03R
LIMON          MOCLDY    67  52  58 NW10      30.00R
MONUMENT HILL  MOCLDY    55  54  94 W8        30.14R
TRINIDAD       MOCLDY    74  47  38 W9        30.03R
$$

COZ042>045-048>051-090-091-040400-
...NORTHEAST COLORADO...

CITY           SKY/WX    TMP DP  RH WIND       PRES   REMARKS
GREELEY ARPT   PTCLDY    61  54  77 N7        29.99R
AKRON          MOCLDY    70  51  51 NW13      29.96R
BURLINGTON     CLOUDY    81  48  31 CALM      29.88R
WRAY           RAIN      67  61  79 NW15      29.88R
STERLING       MOCLDY    75  50  41 NW16      29.90R
HOLYOKE        TSTM      73  57  56 NW5       29.90R
FORT MORGAN    LGT RAIN  70  49  48 N12       29.95S
$$

COZ086-089-092>099-040400-
...SOUTHEAST COLORADO...

CITY           SKY/WX    TMP DP  RH WIND       PRES   REMARKS
PUEBLO         PTCLDY    75  53  46 NW13      29.94R
LA JUNTA       MOCLDY    79  51  37 NW15      29.89R
LAMAR          MOCLDY    86  47  25 S15       29.80R
SPRINGFIELD      N/A     77  47  34 S13       29.91R
$$



USA.gov is the U.S. government's official web portal to all federal, state and local government web resources and services.